Погода в Талаковке

Украина / Донецкая область     47°11′07″N   37°43′18″E
темп.,
°C
ветер,
м/с
пор.,
м/с
влажн.,
%
обл.,
%
осадки,
мм/ч
давл.,
гПа
погр.,
м
20 июня, вс
вс2000:00+22всв91855100 0.0 1014595
03:00+20всв918502 0.0 1014481
06:00+18всв71661100 0.0 1015390
09:00+19всв71563100 0.0 1014438
12:00+25в8145660 1.4 1013937
15:00+27в913535 1.4 10131033
18:00+26всв610612 0.0 1013615
21:00+22св497115 0.0 1012131
21 июня, пн
пн2100:00+21св512724 0.1 1011247
03:00+21в613600 0.1 1011341
06:00+19в513680 0.0 1012329
09:00+24вюв610560 0.0 1013526
12:00+28в7104516 0.0 1012828
15:00+29в711475 0.1 10121410
18:00+29всв5105592 0.0 1010507
21:00+24всв6146015 0.0 1010344
22 июня, вт
вт2200:00+25в716479 0.0 1011446
03:00+21в5135031 0.0 1012305
06:00+19всв4126716 0.6 1012272
09:00+24в612495 0.7 1013567
12:00+29в710403 0.0 1012961
15:00+30вюв711430 0.0 10121617
18:00+30всв36521 0.0 1011445
21:00+25ссв51172100 0.0 1011217
23 июня, ср
ср2300:00+22всв47756 0.0 1011117
03:00+22вюв3479100 0.0 101179
06:00+21в3677100 0.0 1013129
09:00+25в466088 0.0 1014257
12:00+29в57418 0.0 1014613
15:00+32всв683872 0.0 10131246
18:00+30всв585390 0.0 1013522
21:00+25ссв4116835 0.0 1013213
24 июня, чт
чт2400:00+25всв614500 0.0 1013345
03:00+23всв51250100 0.0 1013238
06:00+21всв41062100 0.0 1014224
09:00+25в51050100 0.1 1015487
12:00+28вюв6840100 0.0 1016706
15:00+29в4638100 0.0 1016748
18:00+27всв3455100 0.0 1015106
21:00+24ссв336198 0.0 101539